Lid_Strength_Index
11 11 11 11 10 10 11 10 10 9 9 8 7 7 7 7 6 6 6 4 4 3 0 -2 -2 -2 -2 -2 -1 -1 -1 -1 -1 -1 -1 -1 -1 -1 -1 -1 -2 -2 -2
12 12 12 12 11 12 11 11 11 11 10 9 8 8 8 7 6 6 6 6 4 4 3 1 -2 -2 -2 -2 -2 -1 -1 -1 -1 -1 -1 -1 -1 -1 -1 -1 -1 -2 -2
13 13 13 12 12 12 12 12 11 11 11 10 10 9 8 7 7 6 6 6 5 4 3 3 1 -2 -2 -2 -2 -2 -1 -1 -1 -1 -1 -1 -1 -1 -1 -1 -1 -1 -1
13 13 13 13 13 13 12 12 12 12 12 11 11 10 9 8 8 7 6 6 5 5 4 3 2 -1 -2 -2 -2 -2 -2 -1 -1 -1 -1 -1 -1 -1 -1 -1 -1 -1 -1
14 14 14 13 13 13 13 13 13 12 13 12 11 10 10 9 8 7 7 6 5 5 4 3 3 3 0 -2 -2 -2 -2 -1 -1 -1 -1 -1 -1 -1 -0 -1 -1 -1 -1
14 14 14 14 13 14 13 13 13 13 13 12 12 12 10 8 8 7 7 6 6 5 5 4 3 3 3 -2 -2 -2 -2 -1 -1 -1 -1 -1 -1 -1 -0 -1 -1 -1 -1
15 15 14 14 14 14 14 14 13 14 13 12 13 12 11 8 8 7 6 6 5 5 4 4 3 2 2 -0 -1 -2 -2 -2 -1 -1 -1 -1 -1 -1 -1 -0 -1 -1 -1
15 15 15 15 14 14 14 14 14 14 14 13 14 13 12 10 6 7 7 7 6 5 4 3 3 2 1 -0 -1 -1 -1 -1 -1 -1 -1 -1 -1 -1 -1 -1 -1 -1 -1
15 15 15 15 14 14 14 14 14 14 15 13 13 14 13 13 12 9 8 8 7 5 4 4 3 2 1 0 -0 -1 0 -0 -0 -1 -1 -1 -1 -1 -1 -1 -1 -1 -1
15 15 15 15 15 14 15 14 15 14 14 15 13 13 12 12 14 14 10 9 8 8 6 4 4 3 3 1 2 1 1 1 0 -0 -0 -0 -1 -1 -1 -1 -1 -1 -1
15 15 15 15 15 15 15 15 15 15 14 14 14 14 14 14 13 15 16 12 9 7 7 6 4 3 2 1 2 3 3 1 1 1 0 0 -0 -0 -1 -1 -1 -1 -1
16 16 16 16 15 15 15 15 15 15 15 14 14 14 15 16 14 14 14 13 13 11 8 7 4 4 3 2 3 4 4 4 1 1 1 1 1 0 -0 -1 -1 -1 -1
17 16 16 16 16 16 16 15 15 15 15 15 15 14 14 14 13 14 15 16 15 13 11 9 7 4 3 2 3 5 5 5 6 1 2 2 1 1 1 0 -0 -0 -0
17 17 17 17 17 16 16 16 16 16 15 15 15 15 14 14 14 14 15 16 16 15 12 11 7 5 3 3 3 5 4 4 5 4 2 2 1 2 2 0 1 1 1
18 18 17 18 17 17 16 16 16 16 16 15 15 15 15 14 14 14 14 14 16 18 17 11 9 6 4 3 3 3 3 4 5 6 4 1 2 2 1 0 1 1 1
18 18 18 18 18 17 17 17 17 16 17 16 16 16 16 15 15 14 14 13 13 13 16 12 10 6 5 4 4 4 3 5 5 6 8 2 2 2 2 1 1 1 1
19 19 19 19 18 18 17 18 18 18 18 18 17 17 17 16 16 15 13 12 13 14 16 14 8 6 7 6 4 4 3 4 6 6 7 3 2 3 2 2 2 2 2
19 19 19 19 19 19 18 19 19 18 19 19 18 18 17 16 17 15 13 13 14 14 14 14 10 9 9 6 4 5 4 4 5 7 7 6 3 3 3 3 2 2 3
20 20 20 20 20 20 19 19 19 19 19 19 18 17 17 17 16 14 13 15 14 14 13 13 11 9 8 7 5 5 6 5 4 8 7 8 4 3 3 3 3 4 4
21 21 20 20 20 20 19 19 19 19 19 18 17 16 16 15 14 13 14 15 14 15 14 15 12 10 9 6 6 8 8 7 8 7 8 8 4 5 4 4 4 5 4
21 21 21 21 20 20 20 20 19 18 18 17 16 16 15 12 12 12 14 15 15 15 15 14 14 12 9 9 9 7 8 9 10 9 9 8 3 4 3 4 5 6 5
22 22 21 21 21 20 19 18 17 17 17 17 17 16 13 13 13 12 12 12 12 14 15 15 14 12 10 8 7 8 9 10 13 9 9 8 3 3 3 3 4 5 4
22 22 22 21 21 21 19 17 17 17 16 17 17 15 14 14 14 14 13 12 12 11 11 12 14 13 11 9 8 9 10 12 13 11 10 8 3 4 3 3 5 5 5
23 23 23 22 22 20 18 17 16 16 17 17 15 14 15 15 14 14 14 14 13 12 12 12 12 11 9 8 7 8 9 12 14 13 12 13 4 4 4 3 6 5 5
23 23 22 22 22 22 19 16 16 17 17 16 14 14 15 15 14 13 14 14 12 12 11 11 11 10 10 8 7 9 11 14 15 14 12 11 5 6 5 4 4 5 5
24 23 23 22 22 21 18 16 16 16 17 15 14 14 14 14 13 12 13 13 14 12 12 12 12 12 10 9 7 9 11 14 15 14 12 8 7 9 9 7 5 6 5